STARLINK-36078, 67050

Orbit data source: Space-Track

STARLINK-36078, 67050 is a payload satellite owned by SpaceX/Seattle (US) in LEO that was launched on Thu, 11 Dec 2025 UTC via an FALCON 9 launch vehicle from the Air Force Eastern Test Range (AFETR). Payload-class satellites include a variety of spacecraft equipped with specific instruments for various scientific and technological missions. These include communications satellites like Starlink; space stations such as the ISS; scientific satellites like the Hubble; Earth observation satellites from companies like Planet Labs, Umbra, and HawkEye 360; GPS; miniature CubeSats for education and research; and military/defense satellites.

Loading next visibility...
Identifier
67050, 2025-294W
Orbit
LEO
Country
Flag of USUS
Related business
Manufacturer
SpaceX/Seattle
Mission
Operational Commercial Communications
Bus & Motor
STARLINK V2MO, Unknown motor
Mass
575 kg wet, ~530 kg dry
Launch date (UTC)
2025-12-11 (6 months ago)
Launch vehicle
FALCON 9
Launch site
Air Force Eastern Test Range (AFETR)
Object type
Payload
Rocket body
Debris
Shape & HBR
Box + 2 Pan, 17.7 m
Radar Cross Section
36.964 m², Large (>1 m²)

Expand to show TLE details & history
Last TLE update: 18 hours ago

TLE from 18 hours ago
0 STARLINK-36078
1 67050U 25294W   26171.09614879  .00010184  00000-0  37893-3 0  9998
2 67050  42.9986 179.4957 0001482 256.6361 103.4326 15.27592660 30469
Epoch: 2026-06-20T02:18Z
TLE epoch observation values (Epoch: 2026-06-20T02:18:27.255Z)
Latitude
0.00002°
Longitude
-123.43352°
Altitude
483.023 km
Speed
7.626 km/s
True Right ascension
11h 57m 58s
True Declination
0° 00' 00"
Sunlit
Object was in daylight at epoch
Visualization orbit readout
Latitude
Unknown
Longitude
Unknown
Altitude
Unknown
Speed
Unknown
Apparent Right ascension
Unknown
Apparent Declination
Unknown
Sunlit
N/A
Visualization observer readout
Local Sidereal Time
07:14:02
Azimuth
Unknown
Elevation
Unknown
Doppler factor
Unknown
Orbital elements
Apogee altitude
485.974 km
Perigee altitude
483.939 km
Semi-major axis
6,863.094 km
Eccentricity
0.00015
Inclination
42.9986°
RAAN
179.4957°
Arg. of periapsis
256.6361°
True anomaly
103.44912°
Mean anomaly
103.4326°
Eccentric anomaly
103.44086°
Mean motion
3.81736 °/min
Orbital period
94.31 mins
BSTAR
0.00037893
Loading maneuver chart data...
Computing Atmospheric mass density...
Loading historical data...
Loading historical data...
Loading historical data...
Loading historical data...
Loading historical data...
Loading historical data...
Loading historical data...

Documentation

Showing up to 5 results
|